WA7BMK Weather Reports


Display with metric or nautical units.
time (UTC)temp
F
wind
direction
speed
MPH
gust
MPH
rain 1hr
in
rain 24hr
in
rain mn
in
humidity
%
barometer
mb
20260904061540 54 104 0.0 1.0 0.00 0.25 0.25 92 1011.3
20260904060100 54 0 0.0 0.0 0.00 0.25 0.25 92 1011.1
20260904054549 54 0 0.0 0.0 0.00 0.25 0.25 92 1011.1
20260904053041 54 0 0.0 0.0 0.00 0.25 0.25 92 1011.1
20260904051542 54 0 0.0 0.0 0.00 0.25 0.25 91 1011.2
20260904050044 54 0 0.0 0.0 0.00 0.25 0.25 91 1011.1
20260904044540 54 0 0.0 2.0 0.00 0.25 0.25 91 1011.2
20260904043038 54 0 0.0 0.0 0.00 0.25 0.25 91 1011.2
20260904041543 54 0 0.0 2.0 0.00 0.25 0.25 90 1011.1
20260904040044 55 0 0.0 0.0 0.02 0.25 0.25 90 1011.1
20260904034544 55 0 0.0 2.0 0.09 0.25 0.25 90 1011.0
20260904033038 55 0 0.0 2.0 0.11 0.25 0.25 89 1010.9
20260904031539 55 0 1.0 3.0 0.14 0.25 0.25 88 1010.7
20260904030041 56 0 0.0 0.0 0.13 0.23 0.23 88 1010.6
20260904024538 57 0 0.0 0.0 0.10 0.16 0.16 87 1010.6
20260904023045 57 0 0.0 1.0 0.08 0.14 0.14 85 1010.6
20260904021551 58 0 0.0 5.0 0.05 0.11 0.11 83 1010.6
20260904020042 60 0 0.0 3.0 0.04 0.10 0.10 76 1010.8
20260904014550 63 0 0.0 3.0 0.00 0.06 0.06 63 1010.7
20260904013105 64 315 0.0 8.0 0.00 0.06 0.06 61 1010.1
20260904011544 66 328 0.0 5.0 0.00 0.06 0.06 62 1010.0
20260904010042 65 287 1.0 8.0 0.00 0.06 0.06 61 1010.0
20260904004545 64 231 3.0 12.0 0.00 0.09 0.06 63 1009.9
20260904003045 65 284 1.0 6.0 0.00 0.09 0.06 68 1009.7
20260904001557 65 338 1.0 9.0 0.00 0.09 0.06 68 1009.8
20260904000042 65 281 2.0 8.0 0.00 0.09 0.06 67 1010.0
20260903234547 64 296 3.0 10.0 0.00 0.14 0.06 69 1010.1
20260903233046 63 334 2.0 9.0 0.00 0.14 0.06 69 1010.1
20260903231545 64 308 4.0 17.0 0.00 0.14 0.06 67 1010.0
20260903230043 69 261 2.0 7.0 0.00 0.14 0.06 53 1009.9
20260903224548 68 302 1.0 5.0 0.00 0.17 0.06 55 1009.8
20260903223045 67 0 0.0 3.0 0.00 0.17 0.06 58 1009.8
20260903221547 67 188 0.0 3.0 0.00 0.17 0.06 56 1009.8
20260903220044 66 242 0.0 5.0 0.00 0.17 0.06 59 1009.8
20260903214542 66 204 1.0 7.0 0.00 0.23 0.06 58 1009.9
20260903213049 65 141 0.0 6.0 0.00 0.23 0.06 60 1010.0
20260903211545 65 271 0.0 4.0 0.00 0.23 0.06 62 1010.1
20260903210047 65 162 1.0 7.0 0.00 0.23 0.06 63 1010.0
20260903204542 65 171 2.0 8.0 0.00 0.26 0.06 65 1010.1
20260903203052 65 123 4.0 12.0 0.00 0.26 0.06 64 1010.1
20260903201545 64 83 4.0 11.0 0.00 0.26 0.06 66 1010.1
20260903200044 64 0 2.0 11.0 0.00 0.26 0.06 70 1010.0
20260903194542 62 360 2.0 8.0 0.00 0.27 0.06 71 1010.0
20260903193043 61 0 0.0 5.0 0.00 0.27 0.06 73 1010.0
20260903191545 60 141 3.0 6.0 0.00 0.27 0.06 73 1010.0
20260903190045 60 0 1.0 5.0 0.00 0.27 0.06 74 1010.1
20260903184546 59 360 1.0 8.0 0.00 0.31 0.06 74 1010.0
20260903183038 59 360 2.0 6.0 0.00 0.31 0.06 75 1010.1
20260903181540 60 360 2.0 9.0 0.00 0.31 0.06 75 1009.9
20260903180044 60 155 4.0 10.0 0.00 0.31 0.06 74 1009.9
20260903174542 59 360 3.0 12.0 0.00 0.31 0.06 78 1009.8
20260903173040 58 0 1.0 8.0 0.00 0.31 0.06 83 1009.7
20260903171548 57 360 2.0 11.0 0.00 0.31 0.06 82 1009.7
20260903170048 56 360 3.0 8.0 0.00 0.31 0.06 84 1009.6
20260903164544 56 360 3.0 8.0 0.00 0.31 0.06 85 1009.6
20260903163058 56 157 1.0 4.0 0.00 0.31 0.06 87 1009.6
20260903161544 55 141 2.0 6.0 0.00 0.31 0.06 86 1009.7
20260903160047 55 111 1.0 6.0 0.00 0.31 0.06 88 1009.7
20260903154540 54 180 0.0 4.0 0.00 0.31 0.06 90 1009.6
20260903153041 54 0 1.0 4.0 0.00 0.31 0.06 89 1009.6
20260903151545 54 0 0.0 4.0 0.00 0.31 0.06 89 1009.7
20260903150042 54 231 0.0 4.0 0.00 0.31 0.06 89 1009.6
20260903144543 54 179 0.0 6.0 0.01 0.31 0.06 89 1009.4
20260903143045 53 141 0.0 3.0 0.01 0.31 0.06 90 1009.2
20260903141543 53 0 0.0 3.0 0.02 0.31 0.06 89 1009.2
20260903140130 53 119 1.0 3.0 0.02 0.31 0.06 89 1009.1
20260903140041 53 119 1.0 3.0 0.02 0.31 0.06 89 1009.1
20260903134542 53 167 1.0 3.0 0.02 0.30 0.05 89 1009.0
20260903133050 53 0 2.0 5.0 0.02 0.30 0.05 89 1008.8
20260903131544 53 140 1.0 4.0 0.01 0.29 0.04 88 1008.7
20260903130038 53 115 1.0 5.0 0.02 0.29 0.04 88 1008.6
20260903124538 53 157 1.0 5.0 0.03 0.28 0.03 88 1008.6
20260903123038 53 137 1.0 5.0 0.03 0.28 0.03 88 1008.6
20260903121550 53 0 1.0 4.0 0.03 0.28 0.03 87 1008.7
20260903120048 53 148 0.0 4.0 0.02 0.27 0.02 87 1008.6
20260903114554 53 0 0.0 0.0 0.00 0.25 0.00 87 1008.5
20260903113044 53 0 0.0 0.0 0.00 0.25 0.00 87 1008.4
20260903111543 53 0 0.0 0.0 0.00 0.25 0.00 85 1008.3
20260903110041 53 0 0.0 0.0 0.00 0.25 0.00 85 1008.2
20260903104545 54 0 0.0 1.0 0.00 0.25 0.00 84 1008.2
20260903103044 54 0 0.0 2.0 0.00 0.25 0.00 84 1008.2
20260903101535 54 111 0.0 2.0 0.00 0.25 0.00 84 1008.0
20260903100046 53 0 0.0 4.0 0.00 0.25 0.00 84 1008.2
20260903094545 53 0 0.0 2.0 0.00 0.25 0.00 84 1008.0
20260903093038 53 0 0.0 2.0 0.00 0.25 0.00 84 1008.0
20260903091539 54 135 0.0 3.0 0.00 0.25 0.00 84 1007.9
20260903090042 54 150 0.0 2.0 0.00 0.25 0.00 84 1008.0
20260903084541 54 154 0.0 2.0 0.00 0.25 0.00 84 1008.0
20260903083043 55 175 1.0 5.0 0.00 0.25 0.00 82 1008.1
20260903081540 55 173 1.0 5.0 0.00 0.25 0.00 82 1008.0
20260903080039 55 0 0.0 3.0 0.00 0.25 0.00 82 1008.0
20260903074540 55 155 1.0 3.0 0.00 0.25 0.00 82 1008.0
20260903073050 55 148 1.0 5.0 0.00 0.25 0.00 81 1007.9
20260903071540 55 144 1.0 5.0 0.00 0.25 0.00 82 1008.0
20260903070040 55 159 1.0 5.0 0.00 0.25 0.00 82 1007.8
20260903064539 55 0 0.0 3.0 0.00 0.25 0.25 83 1007.8
20260903063046 55 0 0.0 2.0 0.00 0.25 0.25 82 1007.9